Zurück zum Katalog

TIMED

AktivWissenschaftVLEO
NORAD 26998·PAYLOAD·🇺🇸 United States

Gestartet Dec 7, 2001 von Vandenberg Space Force Base

Loading…

Nächste Überflüge (nächste 24 Stunden)

TLE

AktuellSource: Space-Track

Epoche: Sep 14, 2026, 09:19 UTC

1 26998U 01055B   26257.38827037  .00000930  00000-0  87648-4 0  9994
2 26998  74.0669  55.3867 0001886 235.4185 124.6822 14.95454729344155

Verfolge TIMED in Echtzeit mit AllMySat

Download on the App Store